Time,TemperatureF,DewpointF,PressureIn,WindDirection,WindDirectionDegrees,WindSpeedMPH,WindSpeedGustMPH,Humidity,HourlyPrecipIn,Conditions,Clouds,dailyrainin,SoftwareType,DateUTC
2013-05-21 00:02:00,62.0,61.0,29.65,East,84,0.0,-999.0,96,-99.99,,,-99.99,,2013-05-21 05:02:00,
2013-05-21 00:12:00,62.0,61.0,29.65,East,84,0.0,-999.0,96,-99.99,,,-99.99,,2013-05-21 05:12:00,
2013-05-21 00:22:00,62.0,61.0,29.67,East,84,0.0,-999.0,97,-99.99,,,-99.99,,2013-05-21 05:22:00,
2013-05-21 00:32:00,62.0,61.0,29.65,ESE,116,0.0,-999.0,97,-99.99,,,-99.99,,2013-05-21 05:32:00,
2013-05-21 00:42:00,62.0,61.0,29.62,SE,134,0.0,-999.0,97,-99.99,,,-99.99,,2013-05-21 05:42:00,
2013-05-21 00:52:00,62.0,61.0,29.62,SE,134,0.0,-999.0,97,-99.99,,,-99.99,,2013-05-21 05:52:00,
2013-05-21 01:02:00,62.0,61.0,29.64,SE,142,1.0,-999.0,97,-99.99,,,-99.99,,2013-05-21 06:02:00,
2013-05-21 01:12:00,62.0,61.0,29.64,SE,142,1.0,-999.0,97,-99.99,,,-99.99,,2013-05-21 06:12:00,
2013-05-21 01:21:00,62.0,61.0,29.64,South,182,2.0,-999.0,97,-99.99,,,-99.99,,2013-05-21 06:21:00,
2013-05-21 01:32:00,63.0,62.0,29.64,SSE,161,3.0,-999.0,96,-99.99,,,-99.99,,2013-05-21 06:32:00,
2013-05-21 01:41:00,63.0,62.0,29.64,SSE,161,3.0,-999.0,96,-99.99,,,-99.99,,2013-05-21 06:41:00,
2013-05-21 01:52:00,63.0,61.0,29.64,SW,227,3.0,-999.0,93,-99.99,,,-99.99,,2013-05-21 06:52:00,
2013-05-21 02:01:00,63.0,61.0,29.63,SSW,201,2.0,-999.0,92,-99.99,,,-99.99,,2013-05-21 07:01:00,
2013-05-21 02:11:00,63.0,61.0,29.63,SSW,201,2.0,-999.0,92,-99.99,,,-99.99,,2013-05-21 07:11:00,
2013-05-21 02:22:00,63.0,60.0,29.63,South,171,2.0,-999.0,91,-99.99,,,-99.99,,2013-05-21 07:22:00,
2013-05-21 02:31:00,63.0,60.0,29.64,WSW,241,2.0,-999.0,90,-99.99,,,-99.99,,2013-05-21 07:31:00,
2013-05-21 02:41:00,63.0,60.0,29.64,WSW,241,2.0,-999.0,90,-99.99,,,-99.99,,2013-05-21 07:41:00,
2013-05-21 02:52:00,63.0,60.0,29.63,South,178,2.0,-999.0,90,-99.99,,,-99.99,,2013-05-21 07:52:00,
2013-05-21 03:02:00,63.0,60.0,29.63,South,170,2.0,-999.0,90,-99.99,,,-99.99,,2013-05-21 08:02:00,
2013-05-21 03:11:00,63.0,60.0,29.63,South,170,2.0,-999.0,90,-99.99,,,-99.99,,2013-05-21 08:11:00,
2013-05-21 03:21:00,63.0,60.0,29.63,SSW,212,3.0,-999.0,90,-99.99,,,-99.99,,2013-05-21 08:21:00,
2013-05-21 03:31:00,63.0,60.0,29.63,SSE,159,3.0,-999.0,90,-99.99,,,-99.99,,2013-05-21 08:31:00,
2013-05-21 03:41:00,63.0,60.0,29.64,SSE,161,3.0,-999.0,91,-99.99,,,-99.99,,2013-05-21 08:41:00,
2013-05-21 03:52:00,63.0,60.0,29.64,SSE,161,3.0,-999.0,91,-99.99,,,-99.99,,2013-05-21 08:52:00,
2013-05-21 04:01:00,63.0,60.0,29.64,SSE,159,4.0,-999.0,91,-99.99,,,-99.99,,2013-05-21 09:01:00,
2013-05-21 04:11:00,63.0,60.0,29.64,SSE,159,4.0,-999.0,91,-99.99,,,-99.99,,2013-05-21 09:11:00,
2013-05-21 04:21:00,62.0,60.0,29.64,SE,144,4.0,-999.0,92,-99.99,,,-99.99,,2013-05-21 09:21:00,
2013-05-21 04:32:00,62.0,60.0,29.64,SSW,206,4.0,-999.0,92,-99.99,,,-99.99,,2013-05-21 09:32:00,
2013-05-21 04:42:00,62.0,60.0,29.64,SSW,206,4.0,-999.0,92,-99.99,,,-99.99,,2013-05-21 09:42:00,
2013-05-21 04:53:00,62.0,60.0,29.64,South,174,3.0,-999.0,93,-99.99,,,-99.99,,2013-05-21 09:53:00,
2013-05-21 05:02:00,62.0,60.0,29.64,SW,223,2.0,-999.0,93,-99.99,,,-99.99,,2013-05-21 10:02:00,
2013-05-21 05:12:00,62.0,60.0,29.64,SW,223,2.0,-999.0,93,-99.99,,,-99.99,,2013-05-21 10:12:00,
2013-05-21 05:22:00,62.0,60.0,29.64,SSE,165,3.0,-999.0,93,-99.99,,,-99.99,,2013-05-21 10:22:00,
2013-05-21 05:32:00,62.0,60.0,29.64,SSE,168,3.0,-999.0,93,-99.99,,,-99.99,,2013-05-21 10:32:00,
2013-05-21 05:42:00,62.0,60.0,29.64,SSE,168,3.0,-999.0,93,-99.99,,,-99.99,,2013-05-21 10:42:00,
2013-05-21 05:52:00,62.0,60.0,29.64,South,180,3.0,-999.0,93,-99.99,,,-99.99,,2013-05-21 10:52:00,
2013-05-21 06:02:00,62.0,60.0,29.64,SSW,199,4.0,-999.0,93,-99.99,,,-99.99,,2013-05-21 11:02:00,
2013-05-21 06:12:00,62.0,60.0,29.64,SSW,199,4.0,-999.0,93,-99.99,,,-99.99,,2013-05-21 11:12:00,
2013-05-21 06:21:00,62.0,60.0,29.64,SE,142,4.0,-999.0,93,-99.99,,,-99.99,,2013-05-21 11:21:00,
2013-05-21 06:32:00,62.0,60.0,29.64,SSE,159,4.0,-999.0,93,-99.99,,,-99.99,,2013-05-21 11:32:00,
2013-05-21 06:41:00,62.0,60.0,29.64,SSE,159,4.0,-999.0,93,-99.99,,,-99.99,,2013-05-21 11:41:00,
2013-05-21 06:52:00,62.0,60.0,29.64,SSE,155,3.0,-999.0,93,-99.99,,,-99.99,,2013-05-21 11:52:00,
2013-05-21 07:01:00,63.0,61.0,29.64,WSW,248,4.0,-999.0,92,-99.99,,,-99.99,,2013-05-21 12:01:00,
2013-05-21 07:11:00,63.0,61.0,29.64,WSW,248,4.0,-999.0,92,-99.99,,,-99.99,,2013-05-21 12:11:00,
2013-05-21 07:21:00,63.0,61.0,29.63,South,173,3.0,-999.0,92,-99.99,,,-99.99,,2013-05-21 12:21:00,
2013-05-21 07:31:00,64.0,61.0,29.64,SE,140,2.0,-999.0,91,-99.99,,,-99.99,,2013-05-21 12:31:00,
2013-05-21 07:42:00,64.0,61.0,29.64,SE,140,2.0,-999.0,91,-99.99,,,-99.99,,2013-05-21 12:42:00,
2013-05-21 07:52:00,64.0,61.0,29.64,SE,138,2.0,-999.0,91,-99.99,,,-99.99,,2013-05-21 12:52:00,
2013-05-21 08:01:00,64.0,61.0,29.64,SSW,200,3.0,-999.0,91,-99.99,,,-99.99,,2013-05-21 13:01:00,
2013-05-21 08:12:00,64.0,61.0,29.64,SSW,200,3.0,-999.0,91,-99.99,,,-99.99,,2013-05-21 13:12:00,
2013-05-21 08:22:00,66.0,63.0,29.64,SW,226,4.0,-999.0,89,-99.99,,,-99.99,,2013-05-21 13:22:00,
2013-05-21 08:32:00,66.0,63.0,29.65,South,185,4.0,-999.0,89,-99.99,,,-99.99,,2013-05-21 13:32:00,
2013-05-21 08:41:00,66.0,63.0,29.65,South,185,4.0,-999.0,89,-99.99,,,-99.99,,2013-05-21 13:41:00,
2013-05-21 08:52:00,67.0,64.0,29.65,SE,140,4.0,-999.0,89,-99.99,,,-99.99,,2013-05-21 13:52:00,
2013-05-21 09:01:00,67.0,63.0,29.66,SSW,207,5.0,-999.0,88,-99.99,,,-99.99,,2013-05-21 14:01:00,
2013-05-21 09:11:00,67.0,63.0,29.66,SSW,207,5.0,-999.0,88,-99.99,,,-99.99,,2013-05-21 14:11:00,
2013-05-21 09:21:00,68.0,64.0,29.65,SW,224,4.0,-999.0,87,-99.99,,,-99.99,,2013-05-21 14:21:00,
2013-05-21 09:31:00,69.0,65.0,29.65,South,190,5.0,-999.0,87,-99.99,,,-99.99,,2013-05-21 14:31:00,
2013-05-21 09:41:00,69.0,65.0,29.65,South,190,5.0,-999.0,87,-99.99,,,-99.99,,2013-05-21 14:41:00,
2013-05-21 09:52:00,69.0,65.0,29.65,South,189,3.0,-999.0,86,-99.99,,,-99.99,,2013-05-21 14:52:00,
2013-05-21 10:01:00,70.0,66.0,29.65,SW,215,4.0,-999.0,86,-99.99,,,-99.99,,2013-05-21 15:01:00,
2013-05-21 10:11:00,70.0,66.0,29.65,SW,215,4.0,-999.0,86,-99.99,,,-99.99,,2013-05-21 15:11:00,
2013-05-21 10:21:00,70.0,65.0,29.65,SE,146,4.0,-999.0,83,-99.99,,,-99.99,,2013-05-21 15:21:00,
2013-05-21 10:33:00,71.0,66.0,29.65,WSW,241,4.0,-999.0,83,-99.99,,,-99.99,,2013-05-21 15:33:00,
2013-05-21 10:42:00,72.0,66.0,29.65,SSE,167,2.0,-999.0,82,-99.99,,,-99.99,,2013-05-21 15:42:00,
2013-05-21 10:53:00,72.0,66.0,29.65,SSE,167,2.0,-999.0,82,-99.99,,,-99.99,,2013-05-21 15:53:00,
2013-05-21 11:03:00,72.0,65.0,29.66,SSW,202,4.0,-999.0,78,-99.99,,,-99.99,,2013-05-21 16:03:00,
2013-05-21 11:12:00,72.0,65.0,29.66,SSW,202,4.0,-999.0,78,-99.99,,,-99.99,,2013-05-21 16:12:00,
2013-05-21 11:23:00,72.0,65.0,29.66,SSW,202,4.0,-999.0,78,-99.99,,,-99.99,,2013-05-21 16:23:00,
2013-05-21 11:32:00,74.0,66.0,29.65,SSW,202,4.0,-999.0,75,-99.99,,,-99.99,,2013-05-21 16:32:00,
2013-05-21 11:42:00,74.0,65.0,29.65,South,180,4.0,-999.0,73,-99.99,,,-99.99,,2013-05-21 16:42:00,
2013-05-21 11:53:00,74.0,65.0,29.65,South,180,4.0,-999.0,73,-99.99,,,-99.99,,2013-05-21 16:53:00,
2013-05-21 12:02:00,75.0,65.0,29.65,SW,215,5.0,-999.0,72,-99.99,,,-99.99,,2013-05-21 17:02:00,
2013-05-21 12:12:00,75.0,65.0,29.65,SW,215,5.0,-999.0,72,-99.99,,,-99.99,,2013-05-21 17:12:00,
2013-05-21 12:23:00,75.0,65.0,29.64,South,189,6.0,-999.0,70,-99.99,,,-99.99,,2013-05-21 17:23:00,
2013-05-21 12:32:00,76.0,65.0,29.64,SW,228,4.0,-999.0,70,-99.99,,,-99.99,,2013-05-21 17:32:00,
2013-05-21 12:43:00,77.0,66.0,29.64,SSE,165,6.0,-999.0,68,-99.99,,,-99.99,,2013-05-21 17:43:00,
2013-05-21 12:52:00,77.0,66.0,29.64,SSE,165,6.0,-999.0,68,-99.99,,,-99.99,,2013-05-21 17:52:00,
2013-05-21 13:01:00,77.0,64.0,29.65,SW,229,6.0,-999.0,65,-99.99,,,-99.99,,2013-05-21 18:01:00,
2013-05-21 13:12:00,77.0,64.0,29.65,SW,229,6.0,-999.0,65,-99.99,,,-99.99,,2013-05-21 18:12:00,
2013-05-21 13:22:00,77.0,65.0,29.65,SW,223,8.0,-999.0,66,-99.99,,,-99.99,,2013-05-21 18:22:00,
2013-05-21 13:32:00,77.0,65.0,29.65,SW,234,6.0,-999.0,67,-99.99,,,-99.99,,2013-05-21 18:32:00,
2013-05-21 13:42:00,77.0,64.0,29.65,SW,229,10.0,-999.0,64,-99.99,,,-99.99,,2013-05-21 18:42:00,
2013-05-21 13:52:00,77.0,64.0,29.65,SW,229,10.0,-999.0,64,-99.99,,,-99.99,,2013-05-21 18:52:00,
2013-05-21 14:01:00,77.0,63.0,29.65,SW,216,8.0,-999.0,63,-99.99,,,-99.99,,2013-05-21 19:01:00,
2013-05-21 14:11:00,77.0,63.0,29.65,SW,216,8.0,-999.0,63,-99.99,,,-99.99,,2013-05-21 19:11:00,
2013-05-21 14:21:00,78.0,63.0,29.65,SE,136,6.0,-999.0,60,-99.99,,,-99.99,,2013-05-21 19:21:00,
2013-05-21 14:32:00,78.0,63.0,29.65,SW,215,7.0,-999.0,60,-99.99,,,-99.99,,2013-05-21 19:32:00,
2013-05-21 14:42:00,78.0,63.0,29.65,SW,215,7.0,-999.0,60,-99.99,,,-99.99,,2013-05-21 19:42:00,
2013-05-21 14:52:00,78.0,63.0,29.64,SE,146,11.0,-999.0,60,-99.99,,,-99.99,,2013-05-21 19:52:00,
2013-05-21 15:03:00,78.0,64.0,29.65,WSW,242,9.0,-999.0,63,-99.99,,,-99.99,,2013-05-21 20:03:00,
2013-05-21 15:11:00,78.0,64.0,29.65,WSW,242,9.0,-999.0,63,-99.99,,,-99.99,,2013-05-21 20:11:00,
2013-05-21 15:22:00,78.0,63.0,29.65,SW,228,9.0,-999.0,60,-99.99,,,-99.99,,2013-05-21 20:22:00,
2013-05-21 15:32:00,78.0,63.0,29.64,SSW,213,10.0,-999.0,60,-99.99,,,-99.99,,2013-05-21 20:32:00,
2013-05-21 15:42:00,78.0,63.0,29.64,SSW,213,10.0,-999.0,60,-99.99,,,-99.99,,2013-05-21 20:42:00,
2013-05-21 15:52:00,78.0,62.0,29.65,WSW,246,7.0,-999.0,59,-99.99,,,-99.99,,2013-05-21 20:52:00,
2013-05-21 16:02:00,78.0,62.0,29.65,WSW,242,9.0,-999.0,58,-99.99,,,-99.99,,2013-05-21 21:02:00,
2013-05-21 16:11:00,78.0,62.0,29.65,WSW,242,9.0,-999.0,58,-99.99,,,-99.99,,2013-05-21 21:11:00,
2013-05-21 16:21:00,78.0,62.0,29.64,SSW,210,9.0,-999.0,59,-99.99,,,-99.99,,2013-05-21 21:21:00,
2013-05-21 16:32:00,78.0,65.0,29.64,SW,232,12.0,-999.0,64,-99.99,,,-99.99,,2013-05-21 21:32:00,
2013-05-21 16:43:00,77.0,63.0,29.64,SW,230,5.0,-999.0,61,-99.99,,,-99.99,,2013-05-21 21:43:00,
2013-05-21 16:54:00,77.0,63.0,29.64,SW,230,5.0,-999.0,61,-99.99,,,-99.99,,2013-05-21 21:54:00,
2013-05-21 17:02:00,78.0,62.0,29.64,WSW,248,6.0,-999.0,57,-99.99,,,-99.99,,2013-05-21 22:02:00,
2013-05-21 17:12:00,78.0,62.0,29.64,WSW,248,6.0,-999.0,57,-99.99,,,-99.99,,2013-05-21 22:12:00,
2013-05-21 17:22:00,78.0,64.0,29.63,SW,229,9.0,-999.0,62,-99.99,,,-99.99,,2013-05-21 22:22:00,
2013-05-21 17:33:00,78.0,65.0,29.63,SW,233,9.0,-999.0,64,-99.99,,,-99.99,,2013-05-21 22:33:00,
2013-05-21 17:42:00,78.0,65.0,29.63,SW,233,9.0,-999.0,64,-99.99,,,-99.99,,2013-05-21 22:42:00,
2013-05-21 17:53:00,78.0,63.0,29.62,WSW,246,6.0,-999.0,61,-99.99,,,-99.99,,2013-05-21 22:53:00,
2013-05-21 18:02:00,78.0,63.0,29.61,WSW,242,6.0,-999.0,60,-99.99,,,-99.99,,2013-05-21 23:02:00,
2013-05-21 18:12:00,78.0,63.0,29.61,WSW,242,6.0,-999.0,60,-99.99,,,-99.99,,2013-05-21 23:12:00,
2013-05-21 18:22:00,77.0,62.0,29.61,WSW,239,7.0,-999.0,60,-99.99,,,-99.99,,2013-05-21 23:22:00,
2013-05-21 18:32:00,77.0,63.0,29.62,WSW,239,7.0,-999.0,61,-99.99,,,-99.99,,2013-05-21 23:32:00,
2013-05-21 18:42:00,77.0,63.0,29.62,WSW,247,7.0,-999.0,62,-99.99,,,-99.99,,2013-05-21 23:42:00,
2013-05-21 18:52:00,77.0,63.0,29.62,WSW,247,7.0,-999.0,62,-99.99,,,-99.99,,2013-05-21 23:52:00,
2013-05-21 19:01:00,76.0,62.0,29.62,WSW,248,8.0,-999.0,63,-99.99,,,-99.99,,2013-05-22 00:01:00,
2013-05-21 19:11:00,76.0,62.0,29.62,WSW,248,8.0,-999.0,63,-99.99,,,-99.99,,2013-05-22 00:11:00,
2013-05-21 19:21:00,76.0,62.0,29.63,WSW,241,4.0,-999.0,63,-99.99,,,-99.99,,2013-05-22 00:21:00,
2013-05-21 19:31:00,76.0,63.0,29.62,WSW,238,5.0,-999.0,65,-99.99,,,-99.99,,2013-05-22 00:31:00,
2013-05-21 19:41:00,76.0,63.0,29.62,WSW,238,5.0,-999.0,65,-99.99,,,-99.99,,2013-05-22 00:41:00,
2013-05-21 19:52:00,75.0,62.0,29.63,WSW,242,5.0,-999.0,65,-99.99,,,-99.99,,2013-05-22 00:52:00,
2013-05-21 20:01:00,74.0,62.0,29.64,WSW,237,3.0,-999.0,67,-99.99,,,-99.99,,2013-05-22 01:01:00,
2013-05-21 20:11:00,74.0,62.0,29.64,WSW,237,3.0,-999.0,67,-99.99,,,-99.99,,2013-05-22 01:11:00,
2013-05-21 20:21:00,73.0,63.0,29.63,WSW,238,1.0,-999.0,70,-99.99,,,-99.99,,2013-05-22 01:21:00,
2013-05-21 20:32:00,72.0,63.0,29.64,WSW,238,0.0,-999.0,73,-99.99,,,-99.99,,2013-05-22 01:32:00,
2013-05-21 20:41:00,71.0,64.0,29.64,WSW,238,0.0,-999.0,78,-99.99,,,-99.99,,2013-05-22 01:41:00,
2013-05-21 20:52:00,71.0,64.0,29.64,WSW,238,0.0,-999.0,78,-99.99,,,-99.99,,2013-05-22 01:52:00,
2013-05-21 21:01:00,70.0,63.0,29.64,WSW,238,0.0,-999.0,78,-99.99,,,-99.99,,2013-05-22 02:01:00,
2013-05-21 21:11:00,70.0,63.0,29.64,WSW,238,0.0,-999.0,78,-99.99,,,-99.99,,2013-05-22 02:11:00,
2013-05-21 21:21:00,69.0,61.0,29.64,WSW,238,0.0,-999.0,77,-99.99,,,-99.99,,2013-05-22 02:21:00,
2013-05-21 21:32:00,69.0,61.0,29.64,WSW,238,0.0,-999.0,77,-99.99,,,-99.99,,2013-05-22 02:32:00,
2013-05-21 21:42:00,69.0,62.0,29.63,WSW,238,0.0,-999.0,78,-99.99,,,-99.99,,2013-05-22 02:42:00,
2013-05-21 21:52:00,69.0,62.0,29.63,WSW,238,0.0,-999.0,78,-99.99,,,-99.99,,2013-05-22 02:52:00,
2013-05-21 22:01:00,69.0,62.0,29.63,WSW,238,0.0,-999.0,79,-99.99,,,-99.99,,2013-05-22 03:01:00,
2013-05-21 22:11:00,69.0,62.0,29.63,WSW,238,0.0,-999.0,79,-99.99,,,-99.99,,2013-05-22 03:11:00,
2013-05-21 22:21:00,69.0,62.0,29.63,WSW,238,0.0,-999.0,79,-99.99,,,-99.99,,2013-05-22 03:21:00,
2013-05-21 22:33:00,68.0,62.0,29.62,WSW,238,0.0,-999.0,80,-99.99,,,-99.99,,2013-05-22 03:33:00,
2013-05-21 22:43:00,67.0,61.0,29.62,WSW,238,0.0,-999.0,82,-99.99,,,-99.99,,2013-05-22 03:43:00,
2013-05-21 22:53:00,67.0,61.0,29.62,WSW,238,0.0,-999.0,82,-99.99,,,-99.99,,2013-05-22 03:53:00,
2013-05-21 23:03:00,67.0,62.0,29.62,WSW,238,0.0,-999.0,83,-99.99,,,-99.99,,2013-05-22 04:03:00,
2013-05-21 23:13:00,67.0,62.0,29.62,WSW,238,0.0,-999.0,83,-99.99,,,-99.99,,2013-05-22 04:13:00,
2013-05-21 23:23:00,67.0,62.0,29.63,WSW,238,0.0,-999.0,84,-99.99,,,-99.99,,2013-05-22 04:23:00,
2013-05-21 23:33:00,67.0,62.0,29.63,WSW,238,0.0,-999.0,85,-99.99,,,-99.99,,2013-05-22 04:33:00,
2013-05-21 23:43:00,67.0,63.0,29.63,WSW,238,0.0,-999.0,86,-99.99,,,-99.99,,2013-05-22 04:43:00,
2013-05-21 23:53:00,67.0,63.0,29.63,WSW,238,0.0,-999.0,86,-99.99,,,-99.99,,2013-05-22 04:53:00,